When you browse on this site, cookies collect data to enhance your experience and personalize the content and advertising you see.
Visit our Privacy Policy to learn more. By continuing to use the site, you agree to this use of cookies and data.
  • In Slovakia
  • List of Countries
  • For 7 days
  • Water Temperature
  • Satellite Maps
  • Weather Map
  • Weather Widgets
  • user-avatar
    Login

    Hourly Weather San Luis

    Today, 14 December, Friday

    Time Temperature Precipitation Wind Pressure Humidity
    00:00 +23°C° 0.1 mm 8 mps 692 mmHg 64%
    01:00 +23°C° 0.1 mm 9 mps 693 mmHg 64%
    02:00 +22°C° 0.1 mm 9 mps 693 mmHg 64%
    03:00 +21°C° 0 mm 8 mps 694 mmHg 65%
    04:00 +20°C° 0 mm 8 mps 694 mmHg 66%
    05:00 +18°C° 0 mm 8 mps 695 mmHg 67%
    06:00 +19°C° 0 mm 9 mps 696 mmHg 56%
    07:00 +21°C° 0 mm 10 mps 697 mmHg 45%
    08:00 +21°C° 0 mm 10 mps 698 mmHg 34%
    09:00 +23°C° 0 mm 10 mps 699 mmHg 30%
    10:00 +24°C° 0 mm 9 mps 699 mmHg 26%
    11:00 +26°C° 0 mm 9 mps 700 mmHg 22%
    12:00 +27°C° 0 mm 8 mps 699 mmHg 22%
    13:00 +28°C° 0 mm 8 mps 699 mmHg 21%
    14:00 +29°C° 0 mm 7 mps 699 mmHg 20%
    15:00 +29°C° 0 mm 7 mps 699 mmHg 20%
    16:00 +29°C° 0 mm 7 mps 699 mmHg 20%
    17:00 +28°C° 0 mm 7 mps 699 mmHg 20%
    18:00 +27°C° 0 mm 6 mps 699 mmHg 23%
    19:00 +24°C° 0 mm 6 mps 699 mmHg 25%
    20:00 +23°C° 0 mm 6 mps 699 mmHg 28%
    21:00 +22°C° 0 mm 6 mps 700 mmHg 29%
    22:00 +21°C° 0 mm 6 mps 700 mmHg 30%
    23:00 +20°C° 0 mm 6 mps 701 mmHg 32%

    Tomorrow, 15 December, Saturday

    Time Temperature Precipitation Wind Pressure Humidity
    00:00 +19°C° 0 mm 6 mps 700 mmHg 32%
    01:00 +19°C° 0 mm 5 mps 700 mmHg 31%
    02:00 +19°C° 0 mm 5 mps 700 mmHg 31%
    03:00 +17°C° 0 mm 5 mps 700 mmHg 31%
    04:00 +18°C° 0 mm 4 mps 700 mmHg 31%
    05:00 +18°C° 0 mm 4 mps 700 mmHg 31%
    06:00 +21°C° 0 mm 4 mps 700 mmHg 27%
    07:00 +23°C° 0 mm 4 mps 701 mmHg 24%
    08:00 +27°C° 0 mm 4 mps 701 mmHg 20%
    09:00 +28°C° 0 mm 4 mps 701 mmHg 19%
    10:00 +30°C° 0 mm 5 mps 701 mmHg 17%
    11:00 +33°C° 0 mm 5 mps 701 mmHg 16%
    12:00 +33°C° 0 mm 6 mps 701 mmHg 18%
    13:00 +34°C° 0 mm 6 mps 700 mmHg 20%
    14:00 +35°C° 0 mm 6 mps 699 mmHg 22%
    15:00 +35°C° 0 mm 6 mps 699 mmHg 22%
    16:00 +35°C° 0 mm 6 mps 698 mmHg 22%
    17:00 +34°C° 0 mm 6 mps 697 mmHg 22%
    18:00 +33°C° 0 mm 6 mps 697 mmHg 23%
    19:00 +30°C° 0 mm 5 mps 697 mmHg 23%
    20:00 +28°C° 0 mm 5 mps 697 mmHg 24%
    21:00 +27°C° 0 mm 5 mps 697 mmHg 26%
    22:00 +26°C° 0 mm 6 mps 697 mmHg 27%
    23:00 +26°C° 0 mm 7 mps 698 mmHg 28%

    Day after tomorrow, 16 December, Sunday

    Time Temperature Precipitation Wind Pressure Humidity
    00:00 +24°C° 0 mm 7 mps 697 mmHg 30%
    01:00 +24°C° 0 mm 7 mps 697 mmHg 31%
    02:00 +23°C° 0 mm 7 mps 696 mmHg 33%
    03:00 +23°C° 0 mm 7 mps 696 mmHg 35%
    04:00 +22°C° 0 mm 7 mps 696 mmHg 38%
    05:00 +22°C° 0 mm 6 mps 696 mmHg 41%
    06:00 +24°C° 0 mm 6 mps 697 mmHg 39%
    07:00 +26°C° 0 mm 6 mps 697 mmHg 38%
    08:00 +28°C° 0 mm 6 mps 698 mmHg 36%
    09:00 +30°C° 0 mm 6 mps 698 mmHg 33%
    10:00 +32°C° 0 mm 5 mps 698 mmHg 29%
    11:00 +34°C° 0 mm 4 mps 698 mmHg 26%
    12:00 +35°C° 0 mm 3 mps 697 mmHg 24%
    13:00 +36°C° 0 mm 3 mps 696 mmHg 22%
    14:00 +37°C° 0 mm 2 mps 696 mmHg 20%
    15:00 +37°C° 0 mm 2 mps 695 mmHg 19%
    16:00 +37°C° 0 mm 2 mps 694 mmHg 19%
    17:00 +37°C° 0 mm 2 mps 694 mmHg 18%
    18:00 +35°C° 0.1 mm 2 mps 694 mmHg 21%
    19:00 +33°C° 0.1 mm 3 mps 694 mmHg 25%
    20:00 +31°C° 0.1 mm 3 mps 694 mmHg 28%
    21:00 +30°C° 0.1 mm 3 mps 694 mmHg 32%
    22:00 +29°C° 0.1 mm 4 mps 694 mmHg 35%
    23:00 +28°C° 0.1 mm 4 mps 694 mmHg 38%

    17 December, Monday

    Time Temperature Precipitation Wind Pressure Humidity
    00:00 +27°C° 0.2 mm 5 mps 695 mmHg 43%
    01:00 +27°C° 0.2 mm 6 mps 695 mmHg 49%
    02:00 +26°C° 0.2 mm 7 mps 695 mmHg 54%
    03:00 +23°C° 0.8 mm 7 mps 696 mmHg 57%
    04:00 +21°C° 0.8 mm 8 mps 696 mmHg 60%
    05:00 +18°C° 0.8 mm 8 mps 697 mmHg 63%
    06:00 +18°C° 0.2 mm 9 mps 698 mmHg 64%
    07:00 +18°C° 0.2 mm 9 mps 699 mmHg 65%
    08:00 +18°C° 0.2 mm 9 mps 700 mmHg 66%
    09:00 +19°C° 0 mm 10 mps 700 mmHg 65%
    10:00 +19°C° 0 mm 10 mps 701 mmHg 63%
    11:00 +21°C° 0 mm 10 mps 701 mmHg 62%
    12:00 +21°C° 0 mm 11 mps 701 mmHg 60%
    13:00 +22°C° 0 mm 11 mps 701 mmHg 58%
    14:00 +22°C° 0 mm 11 mps 700 mmHg 56%
    15:00 +22°C° 0 mm 10 mps 700 mmHg 54%
    16:00 +22°C° 0 mm 10 mps 700 mmHg 53%
    17:00 +22°C° 0 mm 10 mps 700 mmHg 51%
    18:00 +21°C° 0 mm 9 mps 700 mmHg 54%
    19:00 +19°C° 0 mm 9 mps 700 mmHg 58%
    20:00 +18°C° 0 mm 8 mps 700 mmHg 61%
    21:00 +17°C° 0 mm 8 mps 701 mmHg 66%
    22:00 +16°C° 0 mm 7 mps 701 mmHg 70%
    23:00 +15°C° 0 mm 7 mps 702 mmHg 75%

    18 December, Tuesday

    Time Temperature Precipitation Wind Pressure Humidity
    00:00 +15°C° 0 mm 6 mps 701 mmHg 76%
    01:00 +15°C° 0 mm 5 mps 701 mmHg 76%
    02:00 +15°C° 0 mm 5 mps 701 mmHg 77%
    03:00 +14°C° 0 mm 5 mps 701 mmHg 77%
    04:00 +14°C° 0 mm 4 mps 700 mmHg 78%
    05:00 +14°C° 0 mm 4 mps 700 mmHg 78%
    06:00 +17°C° 0 mm 4 mps 701 mmHg 69%
    07:00 +19°C° 0 mm 4 mps 701 mmHg 60%
    08:00 +22°C° 0 mm 3 mps 702 mmHg 52%
    09:00 +25°C° 0 mm 3 mps 701 mmHg 45%
    10:00 +27°C° 0 mm 4 mps 701 mmHg 38%
    11:00 +29°C° 0 mm 4 mps 701 mmHg 31%
    12:00 +30°C° 0 mm 4 mps 701 mmHg 29%
    13:00 +32°C° 0 mm 4 mps 700 mmHg 27%
    14:00 +33°C° 0 mm 4 mps 699 mmHg 25%
    15:00 +33°C° 0 mm 4 mps 698 mmHg 25%
    16:00 +33°C° 0 mm 4 mps 698 mmHg 25%
    17:00 +34°C° 0 mm 4 mps 697 mmHg 25%
    18:00 +32°C° 0 mm 4 mps 697 mmHg 29%
    19:00 +29°C° 0 mm 4 mps 697 mmHg 33%
    20:00 +27°C° 0 mm 4 mps 696 mmHg 37%
    21:00 +26°C° 0 mm 5 mps 696 mmHg 40%
    22:00 +26°C° 0 mm 5 mps 696 mmHg 42%
    23:00 +24°C° 0 mm 6 mps 696 mmHg 45%

    19 December, Wednesday

    Time Temperature Precipitation Wind Pressure Humidity
    00:00 +24°C° 0 mm 7 mps 696 mmHg 48%
    01:00 +24°C° 0 mm 8 mps 695 mmHg 50%
    02:00 +23°C° 0 mm 9 mps 695 mmHg 53%
    03:00 +23°C° 0 mm 8 mps 695 mmHg 55%
    04:00 +22°C° 0 mm 8 mps 695 mmHg 57%
    05:00 +22°C° 0 mm 8 mps 694 mmHg 59%
    06:00 +23°C° 0 mm 7 mps 695 mmHg 55%
    07:00 +26°C° 0 mm 7 mps 695 mmHg 50%
    08:00 +28°C° 0 mm 7 mps 696 mmHg 46%
    09:00 +30°C° 0 mm 6 mps 696 mmHg 40%
    10:00 +32°C° 0 mm 5 mps 696 mmHg 35%
    11:00 +34°C° 0 mm 4 mps 695 mmHg 30%
    12:00 +35°C° 0 mm 4 mps 695 mmHg 27%
    13:00 +36°C° 0 mm 3 mps 694 mmHg 25%
    14:00 +36°C° 0 mm 2 mps 694 mmHg 23%
    15:00 +37°C° 0 mm 2 mps 693 mmHg 22%
    16:00 +37°C° 0 mm 2 mps 693 mmHg 21%
    17:00 +37°C° 0 mm 2 mps 693 mmHg 20%
    18:00 +35°C° 0 mm 2 mps 693 mmHg 23%
    19:00 +32°C° 0 mm 2 mps 693 mmHg 26%
    20:00 +31°C° 0 mm 3 mps 693 mmHg 29%
    21:00 +30°C° 0.1 mm 3 mps 694 mmHg 32%
    22:00 +28°C° 0.1 mm 3 mps 694 mmHg 36%
    23:00 +27°C° 0.1 mm 3 mps 695 mmHg 39%
    Show more